Flag for United Kingdom Weather past 2 weeks in Chichester, England, United Kingdom

Now
67 °F

Fog.


Feels Like: 67 °F
Forecast: 59 / 75 °F
Wind: 5 mph from Southeast

Location: Thorney Island

Current Time: Sep 19, 2014 at 11:35:53 AM

Latest Report: Sep 19, 2014 at 11:00 AM


Visibility: 3 mi

Pressure: 29.84 "Hg

Humidity: 94%

Dew point: 65 °F

Location of ChichesterLocation

Historic Weather in Chichester — Graph

°F

Chichester temperature yesterday

Maximum temperature yesterday: 72 °F (at 3:00 PM)
Minimum temperature yesterday: 61 °F (at 5:00 AM)
Average temperature yesterday: 65 °F

Past Weeks' High & Low Weather Summary

 TemperatureHumidityPressure
High73 °F (Sep 16, 1:00 PM)100% (Sep 19, 5:00 AM)30.30 "Hg (Sep 19, 5:00 AM)
Low48 °F (Sep 9, 7:00 AM)55% (Sep 8, 1:00 PM)29.75 "Hg (Sep 18, 5:00 AM)
Average62 °F83%30.04 "Hg
* Reported Sep 4 10:00 AM — Sep 19 10:00 AM, Chichester, Weather by CustomWeather, © 2014

Note: Actual official high and low records may vary slightly from our data, if they occured in-between our weather recording intervals... More about our weather records

Advertising

Chichester weather history for previous 24 hours

 ConditionsComfort  
Time TempWeatherWind HumidityBarometerVisibility
10:00 AM
Sep 19
64 °FFog.5 mph99%29.84 "Hg2 mi
9:00 AM63 °FFog.7 mph100%29.83 "Hg2 mi
8:00 AM62 °FFog.8 mph100%29.81 "Hg1 mi
7:00 AM62 °FFog.7 mph99%29.81 "Hg1 mi
6:00 AM62 °FFog.7 mph100%29.80 "Hg1 mi
5:00 AM62 °FFog.7 mph100%29.79 "Hg2 mi
4:00 AM62 °FCool.6 mph99%29.79 "Hg1 mi
3:00 AM62 °FFog.3 mph99%29.79 "Hg1 mi
2:00 AM64 °FMild.6 mph99%29.79 "Hg1 mi
1:00 AM64 °FMild.5 mph99%29.81 "Hg1 mi
12:00 AM64 °FLight rain. Overcast.6 mph97%29.82 "Hg4 mi
11:00 PM
Sep 18
64 °FLots of rain. Overcast.5 mph94%29.81 "Hg3 mi
10:00 PM64 °FFog.6 mph94%29.80 "Hg6 mi
9:00 PM63 °FMild.7 mph95%29.80 "Hg6 mi
8:00 PM64 °FMild.3 mph90%29.79 "Hg7 mi
7:00 PM67 °FMild.7 mph81%29.78 "Hg9 mi
4:00 PM72 °FMild.10 mph72%29.77 "Hg14 mi
3:00 PM72 °FMild.10 mph73%29.77 "Hg9 mi
1:00 PM72 °FMild.10 mph73%29.76 "Hg7 mi
12:00 PM71 °FSmoke.9 mph77%29.78 "Hg5 mi
11:00 AM66 °FMild.8 mph82%29.78 "Hg4 mi
Weather by CustomWeather, © 2014

See weather overviewHow to use our weather pages